,,PA_Meas_PMT16A,,PR_Meas_QMR101_102,,RH_Meas_QMH101,,SR_Meas_QMS101,,TA_Meas_QMH101,,GenWind,,GenWind,
time,status,PA,status,PR,status,RH,status,SR,status,TA,status,DirAvg,status,SpdAvg,
2010-08-30, 00:00:05,VALID,918.382,VALID,0,VALID,96.3524,VALID,0,VALID,19.7793,VALID,19,VALID,0.985937,
2010-08-30, 00:01:05,VALID,918.402,VALID,0,VALID,96.3142,VALID,0,VALID,19.7403,VALID,19,VALID,0.513281,
2010-08-30, 00:02:05,VALID,918.423,VALID,0,VALID,96.3676,VALID,0,VALID,19.7208,VALID,19,VALID,0.58125,
2010-08-30, 00:03:05,VALID,918.412,VALID,0,VALID,96.4286,VALID,0,VALID,19.7598,VALID,19,VALID,0.238672,
2010-08-30, 00:04:05,VALID,918.383,VALID,0,VALID,96.4286,VALID,0,VALID,19.7388,VALID,19,VALID,0.3375,
2010-08-30, 00:05:05,VALID,918.373,VALID,0,VALID,96.4591,VALID,0,VALID,19.7793,VALID,19,VALID,0.626562,
2010-08-30, 00:06:05,VALID,918.363,VALID,0,VALID,96.4743,VALID,0,VALID,19.7793,VALID,19,VALID,0.581641,
2010-08-30, 00:07:05,VALID,918.335,VALID,0,VALID,96.4667,VALID,0.107441,VALID,19.7988,VALID,19,VALID,0.460938,
2010-08-30, 00:08:05,VALID,918.302,VALID,0,VALID,96.5048,VALID,0.107441,VALID,19.8183,VALID,19,VALID,0.626172,
2010-08-30, 00:09:05,VALID,918.302,VALID,0,VALID,96.4743,VALID,0,VALID,19.7988,VALID,19,VALID,0.685547,
2010-08-30, 00:10:05,VALID,918.283,VALID,0,VALID,96.4743,VALID,0.107441,VALID,19.7988,VALID,19,VALID,0.891797,
2010-08-30, 00:11:05,VALID,918.314,VALID,0,VALID,96.4743,VALID,0,VALID,19.7778,VALID,19,VALID,0.848828,
2010-08-30, 00:12:05,VALID,918.3,VALID,0,VALID,96.4972,VALID,0,VALID,19.7778,VALID,19,VALID,0.99375,
2010-08-30, 00:13:05,VALID,918.231,VALID,0,VALID,96.5124,VALID,0,VALID,19.7988,VALID,19,VALID,1.11797,
2010-08-30, 00:14:05,VALID,918.225,VALID,0,VALID,96.4819,VALID,0,VALID,19.7988,VALID,19,VALID,0.837109,
2010-08-30, 00:15:05,VALID,918.198,VALID,0,VALID,96.4896,VALID,0,VALID,19.8183,VALID,19,VALID,0.907422,
2010-08-30, 00:16:05,VALID,918.177,VALID,0,VALID,96.4362,VALID,0,VALID,19.7793,VALID,20,VALID,0.953906,
2010-08-30, 00:17:05,VALID,918.164,VALID,0,VALID,96.4591,VALID,0,VALID,19.7988,VALID,20,VALID,0.48125,
2010-08-30, 00:18:05,VALID,918.134,VALID,0,VALID,96.4362,VALID,0,VALID,19.7988,VALID,20,VALID,0.642187,
2010-08-30, 00:19:05,VALID,918.104,VALID,0,VALID,96.3829,VALID,0.107441,VALID,19.7793,VALID,20,VALID,0.655859,
2010-08-30, 00:20:05,VALID,918.1,VALID,0,VALID,96.36,VALID,0,VALID,19.7598,VALID,20,VALID,0.85,
2010-08-30, 00:21:05,VALID,918.099,VALID,0,VALID,96.3142,VALID,0,VALID,19.7193,VALID,20,VALID,0.60625,
2010-08-30, 00:22:05,VALID,918.075,VALID,0,VALID,96.2837,VALID,0,VALID,19.7013,VALID,20,VALID,0.823438,
2010-08-30, 00:23:05,VALID,918.054,VALID,0,VALID,96.2685,VALID,0,VALID,19.6818,VALID,21,VALID,1.07656,
2010-08-30, 00:24:05,VALID,918.016,VALID,0,VALID,96.2685,VALID,0.107441,VALID,19.6623,VALID,20,VALID,0.366406,
2010-08-30, 00:25:05,VALID,917.968,VALID,0,VALID,96.3142,VALID,0,VALID,19.6623,VALID,21,VALID,0.707812,
2010-08-30, 00:26:05,VALID,917.946,VALID,0,VALID,96.3142,VALID,0,VALID,19.6413,VALID,21,VALID,0.492578,
2010-08-30, 00:27:05,VALID,917.906,VALID,0,VALID,96.3447,VALID,0.107441,VALID,19.6623,VALID,21,VALID,0.336719,
2010-08-30, 00:28:05,VALID,917.881,VALID,0,VALID,96.3676,VALID,0,VALID,19.6413,VALID,21,VALID,0.405078,
2010-08-30, 00:29:05,VALID,917.878,VALID,0,VALID,96.4057,VALID,0.107441,VALID,19.6818,VALID,21,VALID,0.207813,
2010-08-30, 00:30:05,VALID,917.877,VALID,0,VALID,96.4286,VALID,0,VALID,19.6818,VALID,21,VALID,0,
2010-08-30, 00:31:05,VALID,917.862,VALID,0,VALID,96.4438,VALID,0,VALID,19.7013,VALID,21,VALID,0,
2010-08-30, 00:32:05,VALID,917.885,VALID,0,VALID,96.4819,VALID,0.107441,VALID,19.7208,VALID,21,VALID,0,
2010-08-30, 00:33:05,VALID,917.88,VALID,0,VALID,96.4896,VALID,0.107441,VALID,19.7613,VALID,21,VALID,0.09375,
2010-08-30, 00:34:05,VALID,917.863,VALID,0,VALID,96.4743,VALID,0,VALID,19.7613,VALID,21,VALID,0.246875,
2010-08-30, 00:35:05,VALID,917.876,VALID,0,VALID,96.4743,VALID,0,VALID,19.7208,VALID,21,VALID,0.285156,
2010-08-30, 00:36:05,VALID,917.829,VALID,0,VALID,96.4362,VALID,0,VALID,19.7013,VALID,21,VALID,0.482422,
2010-08-30, 00:37:05,VALID,917.805,VALID,0,VALID,96.4438,VALID,0,VALID,19.7208,VALID,21,VALID,0.490234,
2010-08-30, 00:38:05,VALID,917.824,VALID,0,VALID,96.4591,VALID,0,VALID,19.7208,VALID,21,VALID,0.555078,
2010-08-30, 00:39:05,VALID,917.796,VALID,0,VALID,96.4362,VALID,0,VALID,19.7208,VALID,21,VALID,0.511719,
2010-08-30, 00:40:05,VALID,917.784,VALID,0,VALID,96.4667,VALID,0,VALID,19.7208,VALID,21,VALID,0.633984,
2010-08-30, 00:41:05,VALID,917.785,VALID,0,VALID,96.4591,VALID,0,VALID,19.7013,VALID,21,VALID,0.748047,
2010-08-30, 00:42:05,VALID,917.767,VALID,0,VALID,96.4591,VALID,0,VALID,19.6818,VALID,21,VALID,0.505078,
2010-08-30, 00:43:05,VALID,917.732,VALID,0,VALID,96.4515,VALID,0,VALID,19.6623,VALID,21,VALID,0.483984,
2010-08-30, 00:44:05,VALID,917.723,VALID,0,VALID,96.421,VALID,0,VALID,19.6233,VALID,21,VALID,0.429297,
2010-08-30, 00:45:05,VALID,917.73,VALID,0,VALID,96.4438,VALID,0,VALID,19.6443,VALID,21,VALID,0.527734,
2010-08-30, 00:46:05,VALID,917.739,VALID,0,VALID,96.4438,VALID,0,VALID,19.5843,VALID,21,VALID,0.574219,
2010-08-30, 00:47:05,VALID,917.739,VALID,0,VALID,96.5277,VALID,0,VALID,19.5843,VALID,21,VALID,0.844141,
2010-08-30, 00:48:05,VALID,917.745,VALID,0,VALID,96.4591,VALID,0,VALID,19.5648,VALID,21,VALID,0.7875,
2010-08-30, 00:49:05,VALID,917.764,VALID,0,VALID,96.4896,VALID,0,VALID,19.5453,VALID,21,VALID,0.719141,
2010-08-30, 00:50:05,VALID,917.755,VALID,0,VALID,96.4743,VALID,0,VALID,19.5258,VALID,21,VALID,0.598828,
2010-08-30, 00:51:05,VALID,917.766,VALID,0,VALID,96.5277,VALID,0,VALID,19.5663,VALID,21,VALID,0.751953,
2010-08-30, 00:52:05,VALID,917.745,VALID,0,VALID,96.5201,VALID,0,VALID,19.5063,VALID,21,VALID,0.589844,
2010-08-30, 00:53:05,VALID,917.717,VALID,0,VALID,96.4819,VALID,0,VALID,19.4868,VALID,21,VALID,0.984375,
2010-08-30, 00:54:05,VALID,917.74,VALID,0,VALID,96.4667,VALID,0,VALID,19.5078,VALID,21,VALID,0.589453,
2010-08-30, 00:55:05,VALID,917.684,VALID,0,VALID,96.3829,VALID,0,VALID,19.4673,VALID,21,VALID,0.867578,
2010-08-30, 00:56:05,VALID,917.723,VALID,0,VALID,96.36,VALID,0,VALID,19.4883,VALID,21,VALID,0.563672,
2010-08-30, 00:57:05,VALID,917.713,VALID,0,VALID,96.3752,VALID,0,VALID,19.4673,VALID,22,VALID,0.654297,
2010-08-30, 00:58:05,VALID,917.664,VALID,0,VALID,96.3295,VALID,0,VALID,19.4673,VALID,22,VALID,0.748438,
2010-08-30, 00:59:05,VALID,917.687,VALID,0,VALID,96.36,VALID,0,VALID,19.4673,VALID,22,VALID,0.469922,
2010-08-30, 01:00:05,VALID,917.633,VALID,0,VALID,96.3371,VALID,0,VALID,19.4673,VALID,22,VALID,0.46875,
2010-08-30, 01:01:05,VALID,917.641,VALID,0,VALID,96.3447,VALID,0,VALID,19.4673,VALID,21,VALID,0.323047,
2010-08-30, 01:02:05,VALID,917.606,VALID,0,VALID,96.3524,VALID,0,VALID,19.4688,VALID,22,VALID,0.503906,
2010-08-30, 01:03:05,VALID,917.594,VALID,0,VALID,96.3676,VALID,0,VALID,19.4478,VALID,22,VALID,0.321875,
2010-08-30, 01:04:05,VALID,917.568,VALID,0,VALID,96.3981,VALID,0,VALID,19.4283,VALID,22,VALID,0.176172,
2010-08-30, 01:05:05,VALID,917.569,VALID,0,VALID,96.3676,VALID,0,VALID,19.4088,VALID,22,VALID,0.394141,
2010-08-30, 01:06:05,VALID,917.529,VALID,0,VALID,96.4667,VALID,0,VALID,19.4088,VALID,22,VALID,0.308594,
2010-08-30, 01:07:05,VALID,917.521,VALID,0,VALID,96.5429,VALID,0,VALID,19.4088,VALID,22,VALID,0.0183594,
2010-08-30, 01:08:05,VALID,917.529,VALID,0,VALID,96.5353,VALID,0,VALID,19.4088,VALID,22,VALID,0,
2010-08-30, 01:09:05,VALID,917.453,VALID,0,VALID,96.5811,VALID,0,VALID,19.4088,VALID,22,VALID,0,
2010-08-30, 01:10:05,VALID,917.438,VALID,0,VALID,96.5658,VALID,0,VALID,19.4088,VALID,22,VALID,0,
2010-08-30, 01:11:05,VALID,917.435,VALID,0,VALID,96.6039,VALID,0,VALID,19.4088,VALID,22,VALID,0.0351563,
2010-08-30, 01:12:05,VALID,917.405,VALID,0,VALID,96.5506,VALID,0,VALID,19.3893,VALID,22,VALID,0.369141,
2010-08-30, 01:13:05,VALID,917.374,VALID,0,VALID,96.5582,VALID,0,VALID,19.3893,VALID,22,VALID,0.315625,
2010-08-30, 01:14:05,VALID,917.403,VALID,0,VALID,96.4743,VALID,0,VALID,19.3518,VALID,22,VALID,0.49375,
2010-08-30, 01:15:05,VALID,917.412,VALID,0,VALID,96.4896,VALID,0,VALID,19.3323,VALID,22,VALID,0.360156,
2010-08-30, 01:16:05,VALID,917.36,VALID,0,VALID,96.4896,VALID,0,VALID,19.3323,VALID,22,VALID,0.310937,
2010-08-30, 01:17:05,VALID,917.363,VALID,0,VALID,96.4667,VALID,0,VALID,19.2918,VALID,22,VALID,0.4375,
2010-08-30, 01:18:05,VALID,917.389,VALID,0,VALID,96.421,VALID,0,VALID,19.2334,VALID,22,VALID,0.667578,
2010-08-30, 01:19:05,VALID,917.361,VALID,0,VALID,96.4591,VALID,0,VALID,19.2334,VALID,22,VALID,0.438281,
2010-08-30, 01:20:05,VALID,917.37,VALID,0,VALID,96.4667,VALID,0,VALID,19.2153,VALID,22,VALID,0.374609,
2010-08-30, 01:21:05,VALID,917.352,VALID,0,VALID,96.5201,VALID,0,VALID,19.2139,VALID,22,VALID,0.461328,
2010-08-30, 01:22:05,VALID,917.361,VALID,0,VALID,96.6039,VALID,0.107441,VALID,19.2334,VALID,22,VALID,0.457031,
2010-08-30, 01:23:05,VALID,917.357,VALID,0,VALID,96.6802,VALID,0,VALID,19.2723,VALID,22,VALID,0.773047,
2010-08-30, 01:24:05,VALID,917.341,VALID,0,VALID,96.6573,VALID,0,VALID,19.2723,VALID,22,VALID,0.490625,
2010-08-30, 01:25:05,VALID,917.323,VALID,0,VALID,96.7259,VALID,0,VALID,19.2918,VALID,22,VALID,0.928125,
2010-08-30, 01:26:05,VALID,917.356,VALID,0,VALID,96.7793,VALID,0,VALID,19.3308,VALID,23,VALID,0.622656,
2010-08-30, 01:27:05,VALID,917.339,VALID,0,VALID,96.7869,VALID,0,VALID,19.3308,VALID,24,VALID,0.782422,
2010-08-30, 01:28:05,VALID,917.328,VALID,0,VALID,96.8174,VALID,0,VALID,19.3698,VALID,156,VALID,1.13867,
2010-08-30, 01:29:05,VALID,917.296,VALID,0,VALID,96.8403,VALID,0,VALID,19.3698,VALID,133,VALID,1.06484,
2010-08-30, 01:30:05,VALID,917.288,VALID,0,VALID,96.8631,VALID,0,VALID,19.3893,VALID,133,VALID,0.848437,
2010-08-30, 01:31:05,VALID,917.256,VALID,0,VALID,96.8784,VALID,0,VALID,19.3698,VALID,133,VALID,0.838281,
2010-08-30, 01:32:05,VALID,917.221,VALID,0,VALID,96.9241,VALID,0,VALID,19.3893,VALID,133,VALID,0.904688,
2010-08-30, 01:33:05,VALID,917.217,VALID,0,VALID,96.9622,VALID,0,VALID,19.4283,VALID,133,VALID,0.739062,
2010-08-30, 01:34:05,VALID,917.15,VALID,0,VALID,96.9622,VALID,0,VALID,19.4688,VALID,133,VALID,0.805469,
2010-08-30, 01:35:05,VALID,917.111,VALID,0,VALID,96.9622,VALID,0,VALID,19.4283,VALID,133,VALID,0.760938,
2010-08-30, 01:36:05,VALID,917.054,VALID,0,VALID,96.9775,VALID,0,VALID,19.4478,VALID,133,VALID,0.729297,
2010-08-30, 01:37:05,VALID,916.997,VALID,0,VALID,96.9851,VALID,0,VALID,19.4283,VALID,133,VALID,0.684375,
2010-08-30, 01:38:05,VALID,916.999,VALID,0,VALID,97.0308,VALID,0,VALID,19.4478,VALID,133,VALID,0.496875,
2010-08-30, 01:39:05,VALID,916.902,VALID,0,VALID,97.0385,VALID,0,VALID,19.4688,VALID,133,VALID,0.605859,
2010-08-30, 01:40:05,VALID,916.887,VALID,0,VALID,97.0385,VALID,0,VALID,19.4673,VALID,133,VALID,0.218359,
2010-08-30, 01:41:05,VALID,916.867,VALID,0,VALID,97.0156,VALID,0,VALID,19.4283,VALID,133,VALID,0.207031,
2010-08-30, 01:42:05,VALID,916.832,VALID,0,VALID,97.0232,VALID,0,VALID,19.4493,VALID,133,VALID,0.280859,
2010-08-30, 01:43:05,VALID,916.777,VALID,0,VALID,97.008,VALID,0,VALID,19.4088,VALID,133,VALID,0.669922,
2010-08-30, 01:44:05,VALID,916.76,VALID,0,VALID,97.0308,VALID,0,VALID,19.3893,VALID,133,VALID,0.273047,
2010-08-30, 01:45:05,VALID,916.766,VALID,0,VALID,97.0537,VALID,0,VALID,19.4088,VALID,133,VALID,0.400781,
2010-08-30, 01:46:05,VALID,916.755,VALID,0,VALID,97.069,VALID,0,VALID,19.4088,VALID,133,VALID,0.572266,
2010-08-30, 01:47:05,VALID,916.743,VALID,0,VALID,97.0537,VALID,0,VALID,19.4298,VALID,133,VALID,1.04766,
2010-08-30, 01:48:05,VALID,916.751,VALID,0,VALID,97.0613,VALID,0,VALID,19.3503,VALID,133,VALID,0.867188,
2010-08-30, 01:49:05,VALID,916.769,VALID,0,VALID,97.0385,VALID,0,VALID,19.3113,VALID,133,VALID,0.570703,
2010-08-30, 01:50:05,VALID,916.764,VALID,0,VALID,97.0232,VALID,0,VALID,19.2918,VALID,102,VALID,1.01172,
2010-08-30, 01:51:05,VALID,916.788,VALID,0,VALID,97.0918,VALID,0,VALID,19.3323,VALID,146,VALID,1.30469,
2010-08-30, 01:52:05,VALID,916.773,VALID,0,VALID,97.0994,VALID,0,VALID,19.3908,VALID,109,VALID,1.79258,
2010-08-30, 01:53:05,VALID,916.784,VALID,0,VALID,97.1071,VALID,0,VALID,19.4283,VALID,181,VALID,1.54492,
2010-08-30, 01:54:05,VALID,916.763,VALID,0,VALID,97.1528,VALID,0,VALID,19.4688,VALID,106,VALID,0.491406,
2010-08-30, 01:55:05,VALID,916.791,VALID,0,VALID,97.1376,VALID,0,VALID,19.4883,VALID,155,VALID,1.27891,
2010-08-30, 01:56:05,VALID,916.797,VALID,0,VALID,97.1452,VALID,0,VALID,19.5273,VALID,148,VALID,1.01094,
2010-08-30, 01:57:05,VALID,916.768,VALID,0,VALID,97.1528,VALID,0,VALID,19.5078,VALID,143,VALID,1.12266,
2010-08-30, 01:58:05,VALID,916.796,VALID,0,VALID,97.1528,VALID,0,VALID,19.5063,VALID,158,VALID,1.29531,
2010-08-30, 01:59:05,VALID,916.739,VALID,0,VALID,97.1681,VALID,0,VALID,19.5273,VALID,146,VALID,0.995703,
2010-08-30, 02:00:05,VALID,916.744,VALID,0,VALID,97.1833,VALID,0,VALID,19.4868,VALID,147,VALID,1.11328,
2010-08-30, 02:01:05,VALID,916.734,VALID,0,VALID,97.1604,VALID,0,VALID,19.4673,VALID,146,VALID,1.9332,
2010-08-30, 02:02:05,VALID,916.739,VALID,0,VALID,97.1909,VALID,0,VALID,19.4883,VALID,156,VALID,1.17109,
2010-08-30, 02:03:05,VALID,916.725,VALID,0,VALID,97.1833,VALID,0,VALID,19.4673,VALID,155,VALID,1.30898,
2010-08-30, 02:04:05,VALID,916.709,VALID,0,VALID,97.1833,VALID,0,VALID,19.4478,VALID,125,VALID,0.980859,
2010-08-30, 02:05:05,VALID,916.699,VALID,0,VALID,97.1757,VALID,0,VALID,19.4493,VALID,122,VALID,0.997656,
2010-08-30, 02:06:05,VALID,916.735,VALID,0,VALID,97.1909,VALID,0,VALID,19.4298,VALID,176,VALID,0.45,
2010-08-30, 02:07:05,VALID,916.717,VALID,0,VALID,97.1986,VALID,0,VALID,19.4103,VALID,137,VALID,1.28906,
2010-08-30, 02:08:05,VALID,916.74,VALID,0,VALID,97.1757,VALID,0.107441,VALID,19.3893,VALID,140,VALID,1.08125,
2010-08-30, 02:09:05,VALID,916.75,VALID,0,VALID,97.1833,VALID,0,VALID,19.3698,VALID,140,VALID,1.16094,
2010-08-30, 02:10:05,VALID,916.729,VALID,0,VALID,97.1909,VALID,0,VALID,19.3503,VALID,113,VALID,0.937109,
2010-08-30, 02:11:05,VALID,916.714,VALID,0,VALID,97.1986,VALID,0,VALID,19.3323,VALID,114,VALID,0.836328,
2010-08-30, 02:12:05,VALID,916.717,VALID,0,VALID,97.2062,VALID,0,VALID,19.3128,VALID,124,VALID,1.02461,
2010-08-30, 02:13:05,VALID,916.671,VALID,0,VALID,97.2062,VALID,0,VALID,19.3128,VALID,124,VALID,0.99375,
2010-08-30, 02:14:05,VALID,916.664,VALID,0,VALID,97.2443,VALID,0,VALID,19.3113,VALID,124,VALID,0.975391,
2010-08-30, 02:15:05,VALID,916.654,VALID,0,VALID,97.229,VALID,0,VALID,19.3128,VALID,132,VALID,1.33164,
2010-08-30, 02:16:05,VALID,916.634,VALID,0,VALID,97.2367,VALID,0,VALID,19.3128,VALID,140,VALID,1.24688,
2010-08-30, 02:17:05,VALID,916.655,VALID,0,VALID,97.2519,VALID,0,VALID,19.3323,VALID,142,VALID,0.715625,
2010-08-30, 02:18:05,VALID,916.659,VALID,0,VALID,97.2519,VALID,0,VALID,19.3113,VALID,142,VALID,1.18945,
2010-08-30, 02:19:05,VALID,916.664,VALID,0,VALID,97.229,VALID,0,VALID,19.3128,VALID,180,VALID,0.946875,
2010-08-30, 02:20:05,VALID,916.672,VALID,0,VALID,97.2519,VALID,0,VALID,19.3128,VALID,135,VALID,1.05508,
2010-08-30, 02:21:05,VALID,916.692,VALID,0,VALID,97.2748,VALID,0,VALID,19.2918,VALID,135,VALID,1.07422,
2010-08-30, 02:22:05,VALID,916.688,VALID,0,VALID,97.2748,VALID,0,VALID,19.2918,VALID,112,VALID,1.35781,
2010-08-30, 02:23:05,VALID,916.712,VALID,0,VALID,97.2595,VALID,0,VALID,19.2933,VALID,115,VALID,0.960938,
2010-08-30, 02:24:04,VALID,916.692,VALID,0,VALID,97.2443,VALID,0,VALID,19.2933,VALID,115,VALID,1.19883,
2010-08-30, 02:25:04,VALID,916.712,VALID,0,VALID,97.2595,VALID,0,VALID,19.2334,VALID,115,VALID,1.08398,
2010-08-30, 02:26:04,VALID,916.734,VALID,0,VALID,97.2748,VALID,0,VALID,19.2139,VALID,115,VALID,0.792578,
2010-08-30, 02:27:04,VALID,916.756,VALID,0,VALID,97.2672,VALID,0,VALID,19.1944,VALID,115,VALID,0.471875,
2010-08-30, 02:28:04,VALID,916.79,VALID,0,VALID,97.2748,VALID,0,VALID,19.1944,VALID,115,VALID,1.22734,
2010-08-30, 02:29:04,VALID,916.827,VALID,0,VALID,97.2672,VALID,0,VALID,19.1749,VALID,115,VALID,1.12969,
2010-08-30, 02:30:04,VALID,916.875,VALID,0,VALID,97.29,VALID,0.107441,VALID,19.1749,VALID,131,VALID,1.31016,
2010-08-30, 02:31:04,VALID,916.889,VALID,0,VALID,97.2824,VALID,0,VALID,19.1749,VALID,117,VALID,1.3375,
2010-08-30, 02:32:04,VALID,916.89,VALID,0,VALID,97.2977,VALID,0.107441,VALID,19.1554,VALID,104,VALID,1.54453,
2010-08-30, 02:33:04,VALID,916.899,VALID,0,VALID,97.29,VALID,0.107441,VALID,19.1359,VALID,104,VALID,1.03359,
2010-08-30, 02:34:04,VALID,916.878,VALID,0,VALID,97.2977,VALID,0,VALID,19.1554,VALID,104,VALID,1.4207,
2010-08-30, 02:35:04,VALID,916.902,VALID,0,VALID,97.3129,VALID,0.107441,VALID,19.1344,VALID,112,VALID,1.3043,
2010-08-30, 02:36:04,VALID,916.883,VALID,0,VALID,97.3129,VALID,0,VALID,19.1749,VALID,128,VALID,1.13594,
2010-08-30, 02:37:04,VALID,916.846,VALID,0,VALID,97.3358,VALID,0,VALID,19.1749,VALID,128,VALID,1.08594,
2010-08-30, 02:38:04,VALID,916.859,VALID,0,VALID,97.351,VALID,0,VALID,19.1958,VALID,128,VALID,1.10273,
2010-08-30, 02:39:04,VALID,916.854,VALID,0,VALID,97.3434,VALID,0,VALID,19.1554,VALID,128,VALID,0.830469,
2010-08-30, 02:40:04,VALID,916.83,VALID,0,VALID,97.3358,VALID,0,VALID,19.1554,VALID,128,VALID,1.15703,
2010-08-30, 02:41:04,VALID,916.842,VALID,0,VALID,97.351,VALID,0,VALID,19.1749,VALID,138,VALID,1.29531,
2010-08-30, 02:42:04,VALID,916.803,VALID,0,VALID,97.3434,VALID,0,VALID,19.1763,VALID,127,VALID,1.09922,
2010-08-30, 02:43:04,VALID,916.785,VALID,0,VALID,97.3434,VALID,0,VALID,19.1554,VALID,156,VALID,0.889844,
2010-08-30, 02:44:04,VALID,916.764,VALID,0,VALID,97.3358,VALID,0,VALID,19.1359,VALID,108,VALID,0.996875,
2010-08-30, 02:45:04,VALID,916.716,VALID,0,VALID,97.351,VALID,0,VALID,19.1359,VALID,108,VALID,1.04375,
2010-08-30, 02:46:04,VALID,916.672,VALID,0,VALID,97.351,VALID,0,VALID,19.1359,VALID,108,VALID,0.842578,
2010-08-30, 02:47:04,VALID,916.628,VALID,0,VALID,97.351,VALID,0,VALID,19.1164,VALID,108,VALID,0.846875,
2010-08-30, 02:48:04,VALID,916.597,VALID,0,VALID,97.3739,VALID,0,VALID,19.1359,VALID,122,VALID,0.768359,
2010-08-30, 02:49:04,VALID,916.561,VALID,0,VALID,97.3663,VALID,0,VALID,19.1164,VALID,133,VALID,0.898047,
2010-08-30, 02:50:04,VALID,916.564,VALID,0,VALID,97.3434,VALID,0,VALID,19.0579,VALID,133,VALID,0.825391,
2010-08-30, 02:51:04,VALID,916.514,VALID,0,VALID,97.351,VALID,0,VALID,19.0579,VALID,133,VALID,0.595312,
2010-08-30, 02:52:04,VALID,916.539,VALID,0,VALID,97.3434,VALID,0,VALID,19.0579,VALID,133,VALID,0.938672,
2010-08-30, 02:53:04,VALID,916.489,VALID,0,VALID,97.3663,VALID,0,VALID,19.0384,VALID,125,VALID,1.03359,
2010-08-30, 02:54:04,VALID,916.473,VALID,0,VALID,97.3739,VALID,0,VALID,19.0189,VALID,143,VALID,1.14336,
2010-08-30, 02:55:04,VALID,916.433,VALID,0,VALID,97.3586,VALID,0,VALID,19.0384,VALID,159,VALID,1.00391,
2010-08-30, 02:56:04,VALID,916.396,VALID,0,VALID,97.3891,VALID,0.107441,VALID,19.0579,VALID,158,VALID,1.225,
2010-08-30, 02:57:04,VALID,916.385,VALID,0,VALID,97.3968,VALID,0,VALID,19.0384,VALID,137,VALID,0.708984,
2010-08-30, 02:58:04,VALID,916.406,VALID,0,VALID,97.4044,VALID,0,VALID,19.0384,VALID,137,VALID,0.854297,
2010-08-30, 02:59:04,VALID,916.408,VALID,0,VALID,97.3968,VALID,0.107441,VALID,19.0579,VALID,137,VALID,0.969922,
2010-08-30, 03:00:04,VALID,916.401,VALID,0,VALID,97.3968,VALID,0.107441,VALID,19.0579,VALID,137,VALID,1.16758,
2010-08-30, 03:01:04,VALID,916.38,VALID,0,VALID,97.3968,VALID,0,VALID,19.0579,VALID,151,VALID,1.0457,
2010-08-30, 03:02:04,VALID,916.352,VALID,0,VALID,97.3815,VALID,0,VALID,19.0579,VALID,123,VALID,1.42227,
2010-08-30, 03:03:04,VALID,916.379,VALID,0,VALID,97.3968,VALID,0,VALID,19.0579,VALID,124,VALID,1.01367,
2010-08-30, 03:04:04,VALID,916.355,VALID,0,VALID,97.3815,VALID,0,VALID,19.0384,VALID,131,VALID,0.907422,
2010-08-30, 03:05:04,VALID,916.363,VALID,0,VALID,97.3891,VALID,0,VALID,19.0189,VALID,131,VALID,1.25156,
2010-08-30, 03:06:04,VALID,916.391,VALID,0,VALID,97.3891,VALID,0,VALID,19.0398,VALID,102,VALID,1.2668,
2010-08-30, 03:07:04,VALID,916.394,VALID,0,VALID,97.3968,VALID,0.107441,VALID,18.9994,VALID,75,VALID,1.50742,
2010-08-30, 03:08:04,VALID,916.422,VALID,0,VALID,97.3968,VALID,0,VALID,18.9799,VALID,76,VALID,1.37148,
2010-08-30, 03:09:04,VALID,916.438,VALID,0,VALID,97.4044,VALID,0,VALID,18.9994,VALID,102,VALID,1.2543,
2010-08-30, 03:10:04,VALID,916.414,VALID,0,VALID,97.3815,VALID,0.107441,VALID,18.9994,VALID,115,VALID,1.08438,
2010-08-30, 03:11:04,VALID,916.372,VALID,0,VALID,97.3815,VALID,0,VALID,18.9785,VALID,115,VALID,0.985156,
2010-08-30, 03:12:04,VALID,916.325,VALID,0,VALID,97.3739,VALID,0,VALID,19.0189,VALID,108,VALID,0.682422,
2010-08-30, 03:13:04,VALID,916.271,VALID,0,VALID,97.3891,VALID,0.107441,VALID,19.0384,VALID,135,VALID,1.24102,
2010-08-30, 03:14:04,VALID,916.252,VALID,0,VALID,97.3891,VALID,0.107441,VALID,19.0774,VALID,123,VALID,1.11094,
2010-08-30, 03:15:04,VALID,916.196,VALID,0,VALID,97.3815,VALID,0,VALID,19.0774,VALID,123,VALID,0.886719,
2010-08-30, 03:16:04,VALID,916.163,VALID,0,VALID,97.3891,VALID,0,VALID,19.0774,VALID,123,VALID,1.06719,
2010-08-30, 03:17:04,VALID,916.165,VALID,0,VALID,97.3815,VALID,0,VALID,19.0969,VALID,127,VALID,1.18711,
2010-08-30, 03:18:04,VALID,916.21,VALID,0,VALID,97.3739,VALID,0,VALID,19.0969,VALID,125,VALID,0.934766,
2010-08-30, 03:19:04,VALID,916.205,VALID,0,VALID,97.3663,VALID,0,VALID,19.1359,VALID,125,VALID,0.753125,
2010-08-30, 03:20:04,VALID,916.232,VALID,0,VALID,97.351,VALID,0,VALID,19.1554,VALID,125,VALID,0.8125,
2010-08-30, 03:21:04,VALID,916.252,VALID,0,VALID,97.351,VALID,0,VALID,19.1554,VALID,188,VALID,0.731641,
2010-08-30, 03:22:04,VALID,916.211,VALID,0,VALID,97.3358,VALID,0,VALID,19.1763,VALID,187,VALID,1.48906,
2010-08-30, 03:23:04,VALID,916.202,VALID,0,VALID,97.351,VALID,0,VALID,19.1944,VALID,162,VALID,0.507422,
2010-08-30, 03:24:04,VALID,916.174,VALID,0,VALID,97.3281,VALID,0,VALID,19.1944,VALID,162,VALID,0.553125,
2010-08-30, 03:25:04,VALID,916.155,VALID,0,VALID,97.3434,VALID,0,VALID,19.2139,VALID,162,VALID,0.639844,
2010-08-30, 03:26:04,VALID,916.156,VALID,0,VALID,97.3281,VALID,0.107441,VALID,19.2334,VALID,162,VALID,0.637891,
2010-08-30, 03:27:04,VALID,916.162,VALID,0,VALID,97.3129,VALID,0,VALID,19.1944,VALID,162,VALID,0.674609,
2010-08-30, 03:28:04,VALID,916.218,VALID,0,VALID,97.3281,VALID,0.107441,VALID,19.1749,VALID,128,VALID,1.18438,
2010-08-30, 03:29:04,VALID,916.253,VALID,0,VALID,97.3053,VALID,0,VALID,19.1763,VALID,119,VALID,1.04023,
2010-08-30, 03:30:04,VALID,916.301,VALID,0,VALID,97.29,VALID,0,VALID,19.1568,VALID,113,VALID,1.18203,
2010-08-30, 03:31:04,VALID,916.365,VALID,0,VALID,97.2672,VALID,0,VALID,19.1568,VALID,112,VALID,0.85,
2010-08-30, 03:32:04,VALID,916.379,VALID,0,VALID,97.2595,VALID,0.107441,VALID,19.1568,VALID,143,VALID,1.08477,
2010-08-30, 03:33:04,VALID,916.404,VALID,0,VALID,97.2443,VALID,0,VALID,19.1373,VALID,102,VALID,0.903516,
2010-08-30, 03:34:04,VALID,916.412,VALID,0,VALID,97.2062,VALID,0,VALID,19.1164,VALID,130,VALID,1.36523,
2010-08-30, 03:35:04,VALID,916.379,VALID,0,VALID,97.1986,VALID,0,VALID,19.1359,VALID,156,VALID,0.565234,
2010-08-30, 03:36:04,VALID,916.328,VALID,0,VALID,97.1757,VALID,0,VALID,19.1554,VALID,156,VALID,0.391797,
2010-08-30, 03:37:04,VALID,916.336,VALID,0,VALID,97.1604,VALID,0,VALID,19.1749,VALID,156,VALID,0.773047,
2010-08-30, 03:38:04,VALID,916.306,VALID,0,VALID,97.1376,VALID,0,VALID,19.2153,VALID,156,VALID,0.142188,
2010-08-30, 03:39:04,VALID,916.326,VALID,0,VALID,97.1299,VALID,0,VALID,19.2348,VALID,157,VALID,0.648438,
2010-08-30, 03:40:04,VALID,916.342,VALID,0,VALID,97.0842,VALID,0,VALID,19.2348,VALID,157,VALID,0.867578,
2010-08-30, 03:41:04,VALID,916.34,VALID,0,VALID,97.0461,VALID,0,VALID,19.2139,VALID,157,VALID,0.559375,
2010-08-30, 03:42:04,VALID,916.343,VALID,0,VALID,96.9851,VALID,0,VALID,19.2543,VALID,157,VALID,0.138672,
2010-08-30, 03:43:04,VALID,916.282,VALID,0,VALID,96.9546,VALID,0,VALID,19.2543,VALID,157,VALID,0.308984,
2010-08-30, 03:44:04,VALID,916.274,VALID,0,VALID,96.9241,VALID,0,VALID,19.2528,VALID,157,VALID,0.103125,